Weather in Amiens

France     49°53′19″N   2°17′23″E
temp.,
°C
wind,
m/s
gust,
m/s
humid.,
%
clouds,
%
prec.,
mm/h
press.,
hPa
HPBL,
m
26 february, fri
fri2601:00+9nnw368891 0.1 1032419
04:00+8nw2490100 0.6 1032225
07:00+5n388977 0.7 1033193
10:00+7n47750 0.0 1035353
13:00+10n56590 0.0 10371134
16:00+10n56540 0.0 10351273
19:00+6nne34710 0.0 103794
22:00+4n35820 0.0 103896
27 february, sat
sat2701:00+3nne23790 0.0 104039
04:00+2nne22840 0.0 103927
07:00+2nne23870 0.0 104035
10:00+6nne35760 0.0 1040300
13:00+9ne46590 0.0 1040828
16:00+10ne57580 0.0 1038939
19:00+6ne34760 0.0 103892
22:00+5ne48830 0.0 1039174
28 february, sun
sun2801:00+4ne410850 0.0 1038224
04:00+3ne49890 0.0 1037212
07:00+3ne49920 0.0 1036197
10:00+6ene59790 0.0 1036391
13:00+11ene58650 0.0 1035745
16:00+11ene68630 0.0 1033797
19:00+7ne512760 0.0 1033344
22:00+6ene512790 0.0 1033320
1 march, mon
mon101:00+5ene48870 0.0 1033181
04:00+3ene47890 0.0 1032144
07:00+3ene47910 0.0 1031150
10:00+6e48730 0.0 1031313
13:00+11e57590 0.0 1030611
16:00+12e58560 0.0 1028846
19:00+8e34700 0.0 102856
22:00+6ese37710 0.0 1028133
2 march, tue
tue201:00+4ese36820 0.0 1028111
04:00+3ese23870 0.0 102749
07:00+3se22910 0.0 102728
10:00+7se23820 0.0 1027198
13:00+13s34660 0.0 1027544
16:00+14s35640 0.0 1027785
19:00+10sse348015 0.0 102755
22:00+9sse347970 0.0 102860